TimeEDT,TemperatureF,Dew PointF,Humidity,Sea Level PressureIn,VisibilityMPH,Wind Direction,Wind SpeedMPH,Gust SpeedMPH,PrecipitationIn,Events,Conditions,WindDirDegrees,DateUTC
12:15 AM,41.2,37.6,87,30.09,10.0,NW,5.8,-,N/A,,Overcast,310,2012-10-06 04:15:00
12:35 AM,40.5,36.7,86,30.10,10.0,WNW,4.6,-,N/A,,Mostly Cloudy,290,2012-10-06 04:35:00
12:55 AM,40.1,36.5,87,30.10,10.0,West,5.8,-,N/A,,Clear,280,2012-10-06 04:55:00
1:15 AM,39.4,36.0,88,30.09,10.0,West,5.8,-,N/A,,Clear,270,2012-10-06 05:15:00
1:35 AM,39.2,35.8,88,30.09,10.0,West,5.8,-,N/A,,Clear,270,2012-10-06 05:35:00
1:55 AM,38.8,35.4,88,30.10,10.0,West,8.1,-,N/A,,Clear,280,2012-10-06 05:55:00
2:15 AM,38.5,34.9,87,30.10,10.0,West,6.9,-,N/A,,Clear,280,2012-10-06 06:15:00
2:35 AM,38.3,34.5,86,30.10,10.0,WNW,6.9,-,N/A,,Clear,290,2012-10-06 06:35:00
2:55 AM,37.9,33.8,85,30.10,10.0,WNW,5.8,-,N/A,,Clear,290,2012-10-06 06:55:00
3:15 AM,37.4,33.3,85,30.10,10.0,West,6.9,-,N/A,,Clear,280,2012-10-06 07:15:00
3:35 AM,37.4,33.3,85,30.09,10.0,WNW,6.9,-,N/A,,Clear,290,2012-10-06 07:35:00
3:55 AM,37.2,33.1,85,30.09,10.0,WNW,5.8,-,N/A,,Clear,290,2012-10-06 07:55:00
4:15 AM,36.7,32.7,86,30.09,10.0,WNW,5.8,-,N/A,,Clear,290,2012-10-06 08:15:00
4:35 AM,36.7,32.4,84,30.08,10.0,West,6.9,-,N/A,,Clear,280,2012-10-06 08:35:00
4:55 AM,36.3,32.0,84,30.09,10.0,WNW,5.8,-,N/A,,Clear,290,2012-10-06 08:55:00
5:15 AM,35.8,32.0,86,30.09,10.0,WNW,4.6,-,N/A,,Clear,290,2012-10-06 09:15:00
5:35 AM,35.6,31.6,85,30.10,10.0,West,5.8,-,N/A,,Clear,280,2012-10-06 09:35:00
5:55 AM,34.9,31.1,86,30.10,10.0,WNW,4.6,-,N/A,,Clear,290,2012-10-06 09:55:00
6:15 AM,34.7,31.1,87,30.11,10.0,West,5.8,-,N/A,,Clear,280,2012-10-06 10:15:00
6:35 AM,34.3,30.7,87,30.12,10.0,West,5.8,-,N/A,,Clear,280,2012-10-06 10:35:00
6:55 AM,34.2,30.6,87,30.12,10.0,West,5.8,-,N/A,,Clear,280,2012-10-06 10:55:00
7:15 AM,33.8,30.0,86,30.13,10.0,West,4.6,-,N/A,,Clear,270,2012-10-06 11:15:00
7:35 AM,33.6,29.8,86,30.13,10.0,West,4.6,-,N/A,,Clear,260,2012-10-06 11:35:00
7:55 AM,33.3,29.8,87,30.14,10.0,West,4.6,-,N/A,,Clear,260,2012-10-06 11:55:00
8:15 AM,33.8,30.2,87,30.13,10.0,West,4.6,-,N/A,,Clear,260,2012-10-06 12:15:00
8:35 AM,34.7,30.7,85,30.14,10.0,West,4.6,-,N/A,,Clear,270,2012-10-06 12:35:00
8:55 AM,35.4,30.9,84,30.14,10.0,West,4.6,-,N/A,,Clear,260,2012-10-06 12:55:00
9:15 AM,37.0,31.5,80,30.15,10.0,West,4.6,-,N/A,,Clear,280,2012-10-06 13:15:00
9:35 AM,38.7,32.0,77,30.15,10.0,West,9.2,-,N/A,,Clear,280,2012-10-06 13:35:00
10:15 AM,41.0,32.0,70,30.16,10.0,West,9.2,-,N/A,,Clear,280,2012-10-06 14:15:00
10:35 AM,42.3,32.0,67,30.16,10.0,West,8.1,-,N/A,,Clear,280,2012-10-06 14:35:00
10:55 AM,42.8,31.8,65,30.16,10.0,NW,8.1,-,N/A,,Clear,310,2012-10-06 14:55:00
11:15 AM,43.9,32.0,63,30.16,10.0,WNW,8.1,-,N/A,,Clear,290,2012-10-06 15:15:00
11:35 AM,44.8,32.0,61,30.16,10.0,WNW,9.2,-,N/A,,Clear,300,2012-10-06 15:35:00
11:55 AM,46.6,32.2,57,30.15,10.0,WNW,9.2,-,N/A,,Clear,300,2012-10-06 15:55:00
12:15 PM,46.8,31.5,55,30.16,10.0,WNW,9.2,-,N/A,,Clear,290,2012-10-06 16:15:00
12:35 PM,47.3,32.0,55,30.16,10.0,West,8.1,-,N/A,,Clear,280,2012-10-06 16:35:00
12:55 PM,47.8,31.8,54,30.15,10.0,WNW,8.1,-,N/A,,Clear,290,2012-10-06 16:55:00
1:15 PM,48.6,32.4,54,30.14,10.0,NW,9.2,-,N/A,,Clear,310,2012-10-06 17:15:00
1:35 PM,49.3,32.0,51,30.14,10.0,WNW,10.4,-,N/A,,Clear,300,2012-10-06 17:35:00
1:55 PM,50.0,32.0,50,30.14,10.0,WNW,9.2,-,N/A,,Clear,290,2012-10-06 17:55:00
2:15 PM,50.5,32.4,50,30.14,10.0,NW,9.2,17.3,N/A,,Clear,320,2012-10-06 18:15:00
2:35 PM,50.9,32.2,49,30.14,10.0,WNW,9.2,18.4,N/A,,Clear,300,2012-10-06 18:35:00
2:55 PM,51.1,31.5,47,30.13,10.0,NW,11.5,17.3,N/A,,Clear,310,2012-10-06 18:55:00
3:15 PM,51.6,32.0,47,30.12,10.0,West,10.4,-,N/A,,Clear,280,2012-10-06 19:15:00
3:35 PM,51.4,32.5,49,30.12,10.0,NW,6.9,18.4,N/A,,Clear,310,2012-10-06 19:35:00
3:55 PM,51.8,31.5,46,30.12,10.0,WNW,5.8,-,N/A,,Clear,300,2012-10-06 19:55:00
4:15 PM,51.1,31.8,48,30.12,10.0,West,9.2,-,N/A,,Clear,280,2012-10-06 20:15:00
4:35 PM,51.4,31.1,46,30.12,10.0,WNW,9.2,-,N/A,,Clear,290,2012-10-06 20:35:00
4:55 PM,51.6,32.0,47,30.12,10.0,WNW,8.1,-,N/A,,Clear,290,2012-10-06 20:55:00
5:15 PM,50.0,31.3,49,30.13,10.0,NW,6.9,16.1,N/A,,Scattered Clouds,310,2012-10-06 21:15:00
5:35 PM,51.1,31.3,47,30.12,10.0,NNW,8.1,-,N/A,,Scattered Clouds,330,2012-10-06 21:35:00
5:55 PM,49.8,31.3,49,30.13,10.0,West,6.9,-,N/A,,Scattered Clouds,280,2012-10-06 21:55:00
6:15 PM,48.6,31.1,51,30.14,10.0,WNW,5.8,-,N/A,,Clear,290,2012-10-06 22:15:00
6:35 PM,48.4,30.9,51,30.14,10.0,WNW,6.9,-,N/A,,Clear,300,2012-10-06 22:35:00
7:15 PM,47.3,31.5,54,30.15,10.0,WNW,4.6,-,N/A,,Scattered Clouds,300,2012-10-06 23:15:00
7:35 PM,46.9,31.5,55,30.16,10.0,WNW,5.8,-,N/A,,Mostly Cloudy,290,2012-10-06 23:35:00
7:55 PM,46.8,32.0,57,30.16,10.0,NW,5.8,-,N/A,,Overcast,320,2012-10-06 23:55:00
8:15 PM,45.9,31.8,58,30.15,10.0,NNW,4.6,-,N/A,,Mostly Cloudy,340,2012-10-07 00:15:00
8:35 PM,45.1,32.0,60,30.16,10.0,NNW,3.5,-,N/A,,Mostly Cloudy,330,2012-10-07 00:35:00
8:55 PM,44.8,32.0,61,30.16,10.0,NW,4.6,-,N/A,,Mostly Cloudy,320,2012-10-07 00:55:00
9:15 PM,44.6,32.0,61,30.16,10.0,NW,3.5,-,N/A,,Scattered Clouds,320,2012-10-07 01:15:00
9:35 PM,43.9,32.2,63,30.16,10.0,Calm,Calm,-,N/A,,Scattered Clouds,0,2012-10-07 01:35:00
9:55 PM,43.7,32.2,64,30.15,10.0,NW,3.5,-,N/A,,Mostly Cloudy,320,2012-10-07 01:55:00
10:15 PM,43.9,32.0,63,30.16,10.0,Calm,Calm,-,N/A,,Overcast,0,2012-10-07 02:15:00
10:35 PM,42.4,32.5,68,30.16,10.0,Calm,Calm,-,N/A,,Mostly Cloudy,0,2012-10-07 02:35:00
10:55 PM,41.5,33.4,73,30.16,10.0,Calm,Calm,-,N/A,,Clear,0,2012-10-07 02:55:00
11:15 PM,41.0,33.3,74,30.17,10.0,Calm,Calm,-,N/A,,Clear,0,2012-10-07 03:15:00
11:35 PM,40.1,33.3,77,30.16,10.0,Calm,Calm,-,N/A,,Clear,0,2012-10-07 03:35:00
11:55 PM,39.2,33.1,79,30.16,10.0,Calm,Calm,-,N/A,,Clear,0,2012-10-07 03:55:00